Location: Locarn
(48.3191°N, 3.4222°W)
Time: 22:14:24
(UTC+00:00)

Daily predictions for brighter satellites

Satellite Brightness Start Highest point End
(mag) Time Altitude Azimuth Time Altitude Azimuth Time Altitude Azimuth
CSL-04 Rocket 4.0 18:27:49 10° SE 18:33:01 48° ENE 18:38:20 10° N
ATLAS 2AS CENTAUR R/B 4.1 18:28:10 10° SSE 18:33:49 22° ESE 18:39:28 10° ENE
NOSS 2-2 (D) 3.1 18:30:21 10° SW 18:33:51 84° SE 18:37:49 10° NE
Cosmos 1025 Rocket 3.6 18:29:43 10° N 18:33:51 39° ENE 18:37:59 10° SE
Cosmos 1937 Rocket 3.8 18:28:41 10° SSW 18:33:55 74° WNW 18:39:08 10° NNE
Okean 2 Rocket 3.6 18:30:08 10° SSE 18:34:14 37° E 18:38:21 10° NNE
YAOGAN 1 2.6 18:31:13 10° SSE 18:35:29 63° ENE 18:39:47 10° N
ATLAS 3B R/B 3.7 18:29:53 10° NW 18:35:49 31° NNE 18:41:54 10° E
SKYMED 2 3.7 18:33:54 10° NNE 18:38:16 84° WNW 18:42:37 10° SSW
Abrixas rocket 1.8 18:36:21 10° W 18:39:12 80° S 18:42:02 10° ESE
CREW DRAGON DEMO-1 DEB 2.9 18:38:08 10° WNW 18:41:10 69° NNE 18:44:11 10° ESE
CZ-4B R/B 4.3 18:39:35 10° NNW 18:42:26 24° WNW 18:45:15 10° WSW
Cosmos 1536 Rocket 4.1 18:39:27 10° N 18:43:38 38° ENE 18:47:48 10° SE
Cosmos 1125 Rocket 4.2 18:41:51 10° SSE 18:46:32 33° ESE 18:51:15 10° NE
SJ-6B 4.4 18:48:32 10° ESE 18:51:01 17° ENE 18:53:31 10° NNE
CZ-2D R/B 4.0 18:49:11 10° S 18:53:01 58° W 18:56:52 10° NNW
CZ-4 R/B 1.8 18:48:53 10° S 18:53:05 73° WSW 18:57:15 10° NNW
Cosmos 2150 Rocket 4.2 18:48:06 10° S 18:53:20 55° ESE 18:58:40 10° NNE
USA 238 DEB 3.9 18:46:09 10° NW 18:53:23 89° NE 19:00:55 10° SE
USA 238 3.9 18:46:16 10° NW 18:53:30 88° NE 19:01:01 10° SE
SJ-11-01 4.3 18:49:32 10° SSE 18:54:10 60° ENE 18:58:48 10° N
Cosmos 1464 Rocket 4.0 18:49:06 10° S 18:55:07 63° E 19:01:14 10° NNE
CZ-2C R/B 3.2 18:49:51 10° SSE 18:55:14 77° ENE 19:00:56 10° N
Cosmos 1674 3.5 18:52:33 10° N 18:56:01 31° ENE 18:59:27 10° SE
Cosmos 1782 Rocket 4.5 18:51:41 10° SSW 18:56:01 54° WNW 19:00:25 10° N
Okean-O 3.3 18:52:35 10° S 18:56:57 60° WSW 19:01:22 10° NNW
MOS 1 Rocket 3.4 18:58:57 10° NNE 19:03:08 42° E 19:07:11 10° S
FREGAT/IRIS 4.3 19:04:41 14° ENE 19:04:41 14° ENE 19:06:05 10° NNE
In-Cosmos 22 4.1 19:04:57 10° NNW 19:10:18 90° WSW 19:15:42 10° S
ARGOS 3.2 19:05:34 10° SSE 19:10:51 63° ENE 19:16:11 10° N
Cosmos 1048 Rocket 4.1 19:05:58 10° NNW 19:11:19 86° WSW 19:16:41 10° SSE
CZ-2C R/B 3.4 19:08:23 10° NNE 19:13:18 31° E 19:18:13 10° SSE
Cosmos 1340 Rocket 4.5 19:15:11 16° ENE 19:15:11 16° ENE 19:17:05 10° NE
Cosmos 1733 4.3 19:13:48 14° SE 19:16:11 23° E 19:19:17 10° NE
Cosmos 2151 Rocket 3.5 19:12:23 10° S 19:16:50 72° E 19:21:20 10° NNE
Lacrosse 5 rocket 3.1 19:13:24 10° NW 19:17:06 26° N 19:20:43 11° ENE
HJ-1C 3.4 19:14:26 10° S 19:17:43 79° WSW 19:21:03 10° NNW
NOSS 3-2 (A) 4.4 19:10:21 10° NW 19:17:48 69° SW 19:26:11 10° SSE
DMSP B5D1-3 4.5 19:12:52 10° NNE 19:18:00 86° ESE 19:23:07 10° SSW
Cosmos 2082 Rocket 3.7 19:14:20 10° N 19:18:30 21° NE 19:21:17 15° ENE
BREEZE-M DEB (TANK) 3.4 19:18:28 10° W 19:21:21 49° SSW 19:27:36 14° SE
BREEZE-M R/B 4.4 19:09:21 10° WSW 19:22:06 62° SSE 19:24:25 21° E
Cosmos 494 Rocket 4.0 19:18:49 10° NNW 19:24:07 82° ENE 19:29:24 10° SSE
ATLAS 5 CENTAUR R/B 4.4 19:22:41 10° WNW 19:25:48 27° SW 19:33:21 10° SSE
Meteor 1-15 Rocket 4.2 19:21:57 10° S 19:27:31 62° E 19:33:13 10° NNE
Cosmos 1805 3.5 19:24:16 10° SSE 19:27:59 44° E 19:31:44 10° NNE
OBJECT-B 2.3 19:28:48 21° ENE 19:28:48 21° ENE 19:31:07 10° NNE
Milstar 3 Cent rocket 4.4 19:28:01 10° SSW 19:29:46 11° S 19:31:20 10° SSE
Ariane Rocket 3.1 19:28:06 12° SSE 19:32:43 59° ENE 19:37:44 10° N
SL-08 RB Rocket 3.6 19:28:12 10° SSE 19:32:44 69° ENE 19:37:15 10° N
H-2A R/B 2.4 19:29:11 10° S 19:34:09 67° WSW 19:39:18 10° NNW
Cosmos 1269 Rocket 4.1 19:30:45 10° NNW 19:36:02 61° ENE 19:39:33 21° SE
Nadezhda 4 Rocket 4.0 19:31:25 10° N 19:37:33 82° W 19:43:41 10° S
KORONAS-FOTON 3.8 19:33:42 10° N 19:37:40 87° E 19:41:31 10° S
Cosmos 1626 2.5 19:37:50 10° N 19:41:23 41° ENE 19:42:02 37° ESE
Cosmos 2263 Rocket 4.5 19:37:57 10° W 19:42:23 24° NW 19:46:52 10° N
USA 186 1.6 19:42:35 27° SSE 19:44:12 84° ENE 19:47:31 10° N
MetOp-A 4.2 19:40:20 18° SE 19:44:15 60° ENE 19:49:33 10° N
COSMOS 2406 3.4 19:39:32 10° NNW 19:45:08 54° ENE 19:47:55 28° ESE
Cosmos 1844 Rocket 2.9 19:40:34 10° SW 19:46:06 71° WNW 19:51:44 10° NNE
ISS -3.0 19:43:16 10° W 19:46:34 48° N 19:47:46 31° NE
Cosmos 2278 Rocket 3.1 19:45:39 10° SSE 19:51:32 27° E 19:55:16 10° NE
Lacrosse 4 Rocket 2.6 19:49:02 10° NNW 19:52:28 26° NE 19:52:52 25° NE
IRS-1A Rocket 4.3 19:47:47 11° SSE 19:53:33 86° ENE 19:59:24 10° NNW
Cosmos 1844 3.8 19:48:05 10° SSW 19:53:47 77° WNW 19:59:27 10° NNE
Meteor 1-22 Rocket 4.4 19:49:41 10° S 19:55:25 55° E 20:01:21 10° NNE
Meteor 2-5 Rocket 3.7 19:50:06 10° N 19:55:49 84° ENE 20:00:46 15° SSE
NOSS 3-2 (C) 4.4 19:48:38 10° NW 19:56:04 63° WSW 20:03:38 13° SSE
Cosmos 2034 Rocket 4.4 19:49:57 10° SSW 19:56:17 68° W 20:02:37 10° N
Meteor 1-24 Rocket 3.7 19:52:33 10° N 19:58:08 69° ENE 20:01:37 24° SSE
Exosat Rocket 3.5 19:52:54 10° SSW 19:58:15 88° WNW 20:03:19 10° NNE
Okean 1 Rocket 3.1 19:56:03 10° S 20:00:32 87° W 20:05:03 10° N
NOSS 3-4 (A) 3.3 19:55:17 10° SSW 20:01:07 65° SE 20:07:22 10° NE
NOSS 3-4 (C) 3.3 19:55:24 10° SSW 20:01:13 65° SE 20:07:29 10° NE
SL-14 R/B 3.2 19:57:26 10° N 20:01:22 63° ENE 20:01:55 55° ESE
Resurs 01 Rocket 2.3 20:03:26 37° ENE 20:03:28 37° ENE 20:07:34 10° N
Cosmos 1766 3.3 20:05:49 10° SSW 20:09:44 77° W 20:13:43 10° N
Cosmos 1833 Rocket 2.7 20:04:37 10° NNW 20:10:15 62° ENE 20:11:54 44° ESE
Cosmos 2251 Rocket 4.1 20:08:08 10° N 20:13:10 39° ENE 20:13:44 38° ENE
Abrixas rocket 4.0 20:11:49 10° W 20:13:27 22° SW 20:13:27 22° SW
CENTAUR R/B 3.8 20:06:56 10° NW 20:14:49 55° WSW 20:22:00 15° SSE
ARIANE 5 R/B 3.8 20:20:05 28° NE 20:20:05 28° NE 20:22:52 10° N
SPOT 3 Rocket 3.4 20:20:50 52° SE 20:22:04 74° ENE 20:27:14 10° NNW
ATLAS 2AS CENTAUR R/B 2.9 20:15:51 10° SSW 20:23:49 81° SE 20:31:43 10° NE
Cosmos 1634 Rocket 3.9 20:17:41 10° S 20:23:52 88° W 20:30:08 10° N
SJ-6B 3.6 20:24:09 33° SSW 20:25:20 45° W 20:29:00 10° NNW
Resurs 1-3 3.5 20:26:18 73° SSE 20:26:44 90° NE 20:31:10 10° NNW
ATLAS 3B R/B 2.6 20:20:33 10° NW 20:27:26 83° NE 20:29:50 45° SE
Cosmos 1892 Rocket 3.4 20:24:07 10° N 20:28:29 89° E 20:28:35 85° SSE
Cosmos 1655 Rocket 4.0 20:30:51 10° N 20:37:04 60° ENE 20:37:50 56° ESE
Cosmos 1340 Rocket 3.8 20:50:43 46° WNW 20:50:43 46° WNW 20:54:31 10° N
CZ-2C R/B 3.7 20:48:26 10° N 20:53:44 46° WNW 20:59:04 10° SW
Lacrosse 5 rocket 2.6 20:52:49 10° NW 20:56:20 41° N 20:56:20 41° N
Cosmos 2180 Rocket 4.4 20:57:17 67° S 20:58:13 84° E 21:04:37 10° N
MetOp-B 4.1 20:58:51 76° NNE 20:58:51 76° NNE 21:03:52 10° NNW
Cosmos 2279 Rocket 4.0 20:57:29 35° SSW 21:00:21 77° W 21:06:40 10° N
OBJECT-B 3.5 21:02:00 20° WNW 21:02:00 20° WNW 21:03:36 10° NW
Cosmos 2098 Rocket 3.7 20:54:46 10° N 21:01:34 87° E 21:01:45 84° SE
Cosmos 2082 Rocket 2.1 20:57:45 10° NNW 21:03:08 81° NNW 21:03:08 81° NNW
Spot 2 Rocket 4.1 21:05:26 48° N 21:05:26 48° N 21:09:12 10° N
Terra 3.8 21:21:44 21° NNE 21:21:44 21° NNE 21:23:34 10° N
ISS -0.4 21:20:21 10° WNW 21:20:44 13° WNW 21:20:44 13° WNW
SPOT 1/Viking Rocket 4.4 21:29:22 46° NNW 21:29:22 46° NNW 21:32:57 10° NNW
Lacrosse 4 Rocket 3.6 21:27:26 10° NW 21:29:10 23° WNW 21:29:10 23° WNW
Cosmos 2278 Rocket 2.9 21:33:01 43° W 21:34:16 51° NW 21:39:49 10° NNE
Resurs 01 Rocket 3.7 21:41:00 25° WNW 21:41:00 25° WNW 21:43:50 10° NW
Cosmos 2266 Rocket 4.4 21:39:51 10° NNW 21:45:08 55° WNW 21:45:08 55° WNW
Cosmos 1833 Rocket 4.4 21:49:18 10° NW 21:53:36 24° W 21:53:36 24° W
ATLAS 2AS CENTAUR R/B 4.1 22:08:12 10° W 22:15:35 40° NNW 22:22:49 10° NE
ATLAS 3B R/B 4.3 22:12:04 10° WNW 22:17:06 25° WSW 22:17:06 25° WSW
